Location: Oriwa
(40.7500°S, 175.3333°E)
Time: 14:14:21
(UTC+00:00)

Cosmos 1703 Rocket - Pass Details

Date: 03 February 2023
Orbit: 605 x 631 km, 82.5° (Epoch: 31 March)

Event Time Altitude Azimuth Distance (km) Brightness Sun altitude
Exits shadow 14:36:06 69° 105° (ESE) 689 3.8 -26.0°
Drops below altitude 10° 14:40:27 10° 168° (SSE) 2,049 7.1 -25.5°
Sets 14:42:43 0° 169° (S) 2,965 8.1 -25.3°
